Simultaneous Nadir Overpasses (SNOs) Predictions

Prediction of SNOs between GOES-16 and AQUA Satellite Orbit:

Table of predicted SNOs for the next 14.0 days since TLE Epoch: 12/10/2022
Index Date Time (GOES-16) GOES-16 Lat,Lon AQUA Lat,Lon Distance(km) Time Diff (sec)
1 12/10/2022 06:35:38 -0.01, -75.19 -0.33, -73.61 179.57 80
2 12/10/2022 18:56:51 0.01, -75.19 -0.74, -78.75 404.58 80
3 12/12/2022 18:43:53 0.01, -75.20 -0.10, -75.59 44.73 80
4 12/14/2022 18:33:36 0.01, -75.22 0.61, -72.44 316.15 80
5 12/15/2022 06:54:39 -0.01, -75.22 0.50, -77.54 263.73 80
6 12/17/2022 06:39:01 -0.01, -75.25 -0.18, -74.38 98.04 80
7 12/17/2022 19:00:13 0.01, -75.25 -0.91, -79.52 485.62 80
8 12/19/2022 06:26:03 -0.00, -75.27 -0.89, -71.23 460.39 80
9 12/19/2022 18:47:14 0.01, -75.28 -0.25, -76.35 123.10 80
10 12/21/2022 18:36:55 -0.00, -75.30 0.43, -73.19 239.73 80
11 12/22/2022 06:57:59 0.00, -75.31 0.61, -78.30 339.48 80
